EW7788 Weather Reports


time (UTC)temp
F
wind
direction
speed
knots
gust
knots
rain 1hr
in
rain 24hr
in
rain mn
in
humidity
%
barometer
mb
20260510071605 53 138 0.9 2.6 0.00 0.00 0.00 81 1030.3
20260510070013 53 123 0.9 3.5 0.00 0.00 0.00 80 1030.2
20260510064509 54 145 1.7 3.5 0.00 0.00 0.00 81 1030.1
20260510063003 54 183 1.7 3.5 0.00 0.00 0.00 81 1030.1
20260510061603 54 172 2.6 4.3 0.00 0.00 0.00 80 1030.1
20260510060004 55 157 4.3 7.0 0.00 0.00 0.00 79 1030.1
20260510054538 55 165 1.7 4.3 0.00 0.00 0.00 78 1030.0
20260510053035 56 161 4.3 8.7 0.00 0.00 0.00 77 1029.9
20260510051535 56 200 4.3 7.8 0.00 0.00 0.00 79 1029.8
20260510050008 55 75 0.0 2.6 0.00 0.00 0.00 79 1029.8
20260510044612 55 263 0.9 6.1 0.00 0.00 0.00 80 1029.8
20260510021515 54 196 2.6 6.1 0.00 0.00 0.00 81 1030.4
20260510011530 53 273 0.9 4.3 0.00 0.00 0.00 81 1031.2
20260510001513 52 224 0.0 4.3 0.00 0.00 0.00 85 1031.1
20260510000004 51 207 0.0 3.5 0.00 0.00 0.00 88 1031.1
20260509234608 50 274 0.0 3.5 0.00 0.00 0.00 90 1031.1
20260509233011 50 269 0.9 2.6 0.00 0.00 0.00 92 1031.2
20260509231506 50 269 0.9 2.6 0.00 0.00 0.00 92 1031.1
20260509230012 50 269 0.0 2.6 0.00 0.00 0.00 92 1031.1
20260509224605 50 269 0.0 2.6 0.00 0.01 0.00 91 1031.1
20260509223006 50 269 0.0 2.6 0.00 0.01 0.00 92 1031.0
20260509221605 49 269 0.9 2.6 0.00 0.01 0.00 91 1030.8
20260509220006 49 269 0.0 3.5 0.00 0.01 0.00 91 1030.6
20260509213011 49 269 1.7 2.6 0.00 0.01 0.00 91 1030.0
20260509211504 49 269 0.9 3.5 0.00 0.01 0.00 91 1029.8
20260509210012 49 269 1.7 3.5 0.00 0.01 0.00 91 1029.7
20260509204508 49 269 0.9 2.6 0.00 0.02 0.00 91 1029.6
20260509203007 49 269 0.9 2.6 0.00 0.02 0.00 91 1029.5
20260509201605 50 286 0.9 4.3 0.00 0.02 0.00 91 1029.4
20260509200012 50 226 2.6 6.1 0.00 0.02 0.00 91 1029.3
20260509194604 50 240 1.7 6.1 0.00 0.02 0.00 90 1029.2
20260509193011 50 218 2.6 4.3 0.00 0.02 0.00 90 1029.1
20260509191504 50 23 1.7 6.1 0.00 0.02 0.00 89 1028.9
20260509190005 50 292 0.0 1.7 0.00 0.02 0.00 89 1028.7
20260509184504 50 292 0.0 2.6 0.00 0.02 0.00 88 1028.4
20260509183004 50 292 0.9 1.7 0.00 0.02 0.00 89 1028.3
20260509181606 51 292 0.9 2.6 0.00 0.02 0.00 89 1028.1
20260509180012 51 292 0.9 3.5 0.00 0.02 0.00 89 1028.1
20260509174506 50 277 1.7 6.1 0.00 0.02 0.00 89 1028.1
20260509173121 51 315 1.7 4.3 0.00 0.02 0.00 89 1028.0
20260509171509 51 334 2.6 5.2 0.00 0.02 0.00 89 1028.1
20260509170011 51 323 1.7 4.3 0.00 0.02 0.00 89 1028.1
20260509164504 51 291 1.7 4.3 0.00 0.02 0.00 89 1028.2
20260509163013 51 323 2.6 4.3 0.00 0.02 0.00 89 1028.2
20260509161606 51 291 0.9 3.5 0.00 0.02 0.00 89 1028.2
20260509160005 51 300 2.6 7.0 0.00 0.02 0.00 89 1028.2
20260509154620 51 333 2.6 4.3 0.00 0.02 0.00 89 1028.2
20260509153009 51 282 2.6 5.2 0.00 0.02 0.00 90 1028.3
20260509151546 51 307 1.7 4.3 0.00 0.02 0.00 90 1028.3
20260509150017 51 293 1.7 4.3 0.00 0.02 0.00 90 1028.4
20260509144613 51 286 1.7 4.3 0.00 0.02 0.00 90 1028.3
20260509143010 51 314 1.7 6.1 0.00 0.02 0.00 90 1028.3
20260509141603 51 339 2.6 4.3 0.00 0.02 0.00 91 1028.2
20260509140005 51 339 0.9 1.7 0.00 0.02 0.00 91 1028.3
20260509134603 52 339 0.9 3.5 0.00 0.02 0.00 90 1028.3
20260509133004 51 339 0.9 4.3 0.00 0.02 0.00 90 1028.4
20260509131603 52 317 0.9 3.5 0.00 0.02 0.00 90 1028.4
20260509130021 52 317 0.9 1.7 0.00 0.02 0.00 90 1028.5
20260509124504 52 317 0.9 1.7 0.00 0.02 0.02 91 1028.4
20260509123004 52 317 0.9 1.7 0.00 0.02 0.02 91 1028.4
20260509121617 52 317 0.0 1.7 0.00 0.02 0.02 90 1028.5
20260509120012 52 317 0.9 2.6 0.00 0.02 0.02 90 1028.5
20260509114604 52 240 0.9 2.6 0.00 0.02 0.02 90 1028.4
20260509113003 52 340 0.9 3.5 0.00 0.02 0.02 90 1028.2
20260509111608 52 262 0.9 3.5 0.00 0.02 0.02 90 1028.2
20260509110004 52 301 0.9 3.5 0.00 0.03 0.02 90 1028.1
20260509104607 53 286 0.0 2.6 0.00 0.03 0.02 90 1028.1
20260509103010 53 265 0.9 2.6 0.00 0.03 0.02 90 1028.1
20260509101502 53 288 0.9 2.6 0.00 0.03 0.02 89 1028.1
20260509100007 53 235 0.9 4.3 0.00 0.03 0.02 88 1027.9
20260509094603 53 294 0.9 3.5 0.00 0.03 0.02 87 1027.9
20260509093009 53 240 1.7 6.1 0.00 0.03 0.02 87 1027.9
20260509091503 52 290 0.9 6.1 0.00 0.03 0.02 87 1027.8
20260509090012 52 298 0.9 3.5 0.00 0.03 0.02 86 1027.5
20260509084503 53 271 1.7 5.2 0.00 0.03 0.02 87 1027.6
20260509083004 53 197 1.7 5.2 0.00 0.03 0.02 87 1027.4
20260509081607 53 308 1.7 2.6 0.00 0.03 0.02 87 1027.4
20260509080010 53 308 0.9 2.6 0.00 0.03 0.02 87 1027.3
20260509074603 53 308 0.9 2.6 0.00 0.03 0.02 86 1027.1
20260509073010 54 298 0.9 2.6 0.00 0.03 0.02 86 1027.0